Read MPEC 2001-U42
Read MPEC 2001-U44
M.P.E.C. 2001-U43 Issued 2001 Oct. 23, 22:54 UT
The Minor Planet Electronic Circulars contain information on unusual
minor planets and routine data on comets. They are published
on behalf of Commission 20 of the International Astronomical Union by the
Minor Planet Center, Smithsonian Astrophysical Observatory,
Cambridge, MA 02138, U.S.A.
Prepared using the Tamkin Foundation Computer Network
MPC@CFA.HARVARD.EDU
URL http://cfa-www.harvard.edu/iau/mpc.html ISSN 1523-6714
COMET C/2000 WM1 (LINEAR)
Observations:
CK00W01M C2001 10 02.67253 04 57 43.39 +51 10 52.8 349
CK00W01M C2001 10 02.67405 04 57 43.43 +51 10 53.0 349
CK00W01M C2001 10 02.67574 04 57 43.43 +51 10 53.2 349
CK00W01M C2001 10 02.67729 04 57 43.44 +51 10 53.4 12.3 T 349
CK00W01M C2001 10 03.88510 04 57 57.99 +51 11 49.5 13.7 N 162
CK00W01M C2001 10 03.90705 04 57 58.08 +51 11 50.5 13.8 N 162
CK00W01M C2001 10 04.12675 04 57 59.90 +51 12 01.4 14.0 T 238
CK00W01M C2001 10 07.68788 04 58 13.75 +51 13 33.3 12.5 T 340
CK00W01M C2001 10 07.69181 04 58 13.65 +51 13 34.1 340
CK00W01M C2001 10 07.69410 04 58 13.76 +51 13 33.2 340
CK00W01M C2001 10 07.69727 04 58 13.65 +51 13 33.7 340
CK00W01M C2001 10 07.83684 04 58 13.39 +51 13 31.2 13.3 N 162
CK00W01M C2001 10 07.87058 04 58 13.36 +51 13 31.9 13.3 N 162
CK00W01M C2001 10 08.90690 04 58 08.75 +51 13 30.5 13.6 N 170
CK00W01M C2001 10 09.97529 04 57 59.59 +51 13 18.0 629
CK00W01M C2001 10 09.98138 04 57 59.53 +51 13 18.2 629
CK00W01M C2001 10 10.89262 04 57 48.35 +51 12 51.8 13.4 N 170
CK00W01M C2001 10 10.90432 04 57 48.15 +51 12 51.4 13.4 N 170
CK00W01M C2001 10 10.99266 04 57 46.79 +51 12 50.5 13.4 N 170
CK00W01M 2001 10 11.66736 04 57 36.05 +51 12 26.7 12.1 T 372
CK00W01M C2001 10 11.68322 04 57 35.72 +51 12 24.9 355
CK00W01M C2001 10 11.68422 04 57 35.71 +51 12 25.4 355
CK00W01M C2001 10 11.68528 04 57 35.61 +51 12 24.6 355
CK00W01M C2001 10 11.83334 04 57 33.18 +51 12 13.7 13.6 N 235
CK00W01M C2001 10 11.85385 04 57 32.90 +51 12 13.0 107
CK00W01M C2001 10 11.87332 04 57 32.63 +51 12 12.7 107
CK00W01M C2001 10 12.22697 04 57 25.65 +51 11 55.3 15.4 T 750
CK00W01M C2001 10 12.23488 04 57 25.56 +51 11 55.3 15.3 T 750
CK00W01M C2001 10 12.57470 04 57 18.53 +51 11 35.6 11.6 T 340
CK00W01M C2001 10 12.57654 04 57 18.59 +51 11 36.3 340
CK00W01M C2001 10 12.57866 04 57 18.45 +51 11 36.3 340
CK00W01M C2001 10 12.58363 04 57 18.42 +51 11 35.2 340
CK00W01M 2001 10 12.66597 04 57 16.53 +51 11 33.3 12.1 T 372
CK00W01M C2001 10 12.88568 04 57 11.73 +51 11 15.7 13.5 N 235
CK00W01M C2001 10 13.11156 04 57 06.11 +51 11 03.9 046
CK00W01M C2001 10 13.11203 04 57 06.10 +51 11 03.9 046
CK00W01M C2001 10 13.11247 04 57 06.09 +51 11 03.8 046
CK00W01M C2001 10 13.11291 04 57 06.08 +51 11 03.8 046
CK00W01M C2001 10 13.11340 04 57 06.05 +51 11 03.9 046
CK00W01M 2001 10 13.74896 04 56 50.26 +51 10 19.0 372
CK00W01M C2001 10 13.82878 04 56 48.14 +51 10 07.3 13.5 N 162
CK00W01M C2001 10 13.85436 04 56 47.47 +51 10 05.9 13.6 N 162
CK00W01M C2001 10 13.87876 04 56 47.15 +51 10 03.9 13.9 N 215
CK00W01M C2001 10 13.87913 04 56 47.10 +51 10 03.4 14.0 N 215
CK00W01M C2001 10 13.87946 04 56 47.07 +51 10 03.6 14.0 N 215
CK00W01M C2001 10 13.93203 04 56 45.61 +51 09 59.7 13.4 N 941
CK00W01M C2001 10 13.93903 04 56 45.39 +51 09 59.6 13.4 N 941
CK00W01M C2001 10 13.96475 04 56 44.67 +51 09 58.0 13.4 N 941
CK00W01M C2001 10 14.03287 04 56 42.57 +51 09 53.7 13.4 T 232
CK00W01M C2001 10 14.03403 04 56 42.67 +51 09 53.8 952
CK00W01M C2001 10 14.03605 04 56 42.62 +51 09 54.3 13.4 N 952
CK00W01M C2001 10 14.03851 04 56 42.39 +51 09 53.1 13.4 T 232
CK00W01M C2001 10 14.04379 04 56 42.35 +51 09 52.8 13.5 T 232
CK00W01M C2001 10 14.04887 04 56 42.22 +51 09 52.9 13.3 N 952
CK00W01M C2001 10 14.05049 04 56 42.21 +51 09 52.4 13.4 N 952
CK00W01M C2001 10 14.05645 04 56 41.94 +51 09 52.1 13.5 T 232
CK00W01M C2001 10 14.84255 04 56 18.75 +51 08 37.3 13.9 N 235
CK00W01M C2001 10 15.90145 04 55 42.32 +51 06 40.6 13.4 N 170
CK00W01M C2001 10 15.90366 04 55 42.37 +51 06 43.9 097
CK00W01M C2001 10 15.91288 04 55 42.00 +51 06 42.9 097
CK00W01M C2001 10 16.40137 04 55 23.60 +51 05 44.7 18.0 T 704
CK00W01M C2001 10 16.41767 04 55 22.23 +51 05 39.9 19.7 T 704
CK00W01M C2001 10 16.43401 04 55 21.48 +51 05 37.4 20.0 T 704
CK00W01M C2001 10 16.45042 04 55 20.69 +51 05 34.8 19.1 T 704
CK00W01M C2001 10 16.46675 04 55 19.71 +51 05 31.9 19.2 T 704
CK00W01M C2001 10 16.86148 04 55 04.48 +51 04 34.0 12.8 N 162
CK00W01M C2001 10 16.88249 04 55 03.67 +51 04 31.6 12.9 N 162
CK00W01M C2001 10 17.20110 04 54 49.95 +51 03 45.4 14.6 T 750
CK00W01M C2001 10 17.20961 04 54 49.57 +51 03 44.3 14.6 T 750
CK00W01M C2001 10 17.21831 04 54 49.16 +51 03 43.2 14.6 T 750
CK00W01M C2001 10 17.25071 04 54 47.82 +51 03 36.8 642
CK00W01M C2001 10 17.25207 04 54 47.73 +51 03 36.6 642
CK00W01M C2001 10 17.25344 04 54 47.66 +51 03 36.5 642
CK00W01M C2001 10 17.25478 04 54 47.61 +51 03 36.1 642
CK00W01M C2001 10 18.83754 04 53 30.80 +50 59 03.1 13.7 N 235
CK00W01M C2001 10 18.99242 04 53 22.41 +50 58 35.4 13.5 N 170
CK00W01M C2001 10 19.01108 04 53 21.28 +50 58 32.0 13.5 N 170
CK00W01M C2001 10 20.84046 04 51 32.60 +50 51 37.3 12.6 N 162
CK00W01M C2001 10 20.86679 04 51 30.79 +50 51 31.4 12.5 N 162
CK00W01M C2001 10 21.82017 04 50 25.74 +50 47 12.6 201
CK00W01M C2001 10 21.82722 04 50 25.24 +50 47 10.6 201
CK00W01M C2001 10 21.83329 04 50 24.80 +50 47 09.1 201
CK00W01M C2001 10 21.91856 04 50 18.60 +50 46 46.8 13.2 N 170
CK00W01M C2001 10 22.90994 04 49 03.65 +50 41 40.7 13.2 N 170
Observer details:
046 Klet. Observers J. Ticha, M. Tichy. 0.57-m f/5.2 reflector + CCD.
097 Wise Observatory, Mitzpeh Ramon. Observer E. O. Ofek. 1.0-m f/7
reflector + CCD.
107 Cavezzo. Observer M. Nicolini. 0.40-m f/5.5 reflector + CCD.
162 Potenza. Observer A. M. Giambersio. 0.20-m f/6.3 reflector + CCD.
170 Observatorio de Beques. Observer J. Manteca. 0.26-m Schmidt-Cassegrain
+ CCD.
201 Jonathan B. Postel Observatory. Observer V. Pozzoli. 0.30-m f/10.0
reflector + CCD.
215 Buchloe. Observer W. Hasubick. 0.44-m f/4.6 reflector + CCD.
232 Masquefa Observatory. Observer E. Reina L. 0.25-m f/6.3
Schmidt-Cassegrain + CCD.
235 CAST Observatory, Talmassons. Observer R. Ligustri. 0.35-m f/3.5
reflector + CCD.
238 Grorudalen Optical Observatory. Observer O. Trondal. 0.61-m f/3.2
reflector + CCD. Long. = 10.9094, rho cos phi' = 0.50204, rho sin phi'
= +0.86197.
340 Toyonaka. Observer Y. Ezaki. 0.3-m f/6.0 reflector + CCD.
349 Ageo. Observer K. Kadota. 0.18-m f/5.5 reflector + CCD.
355 Hadano. Observer A. Asami. 0.28-m f/5.0 reflector + CCD.
372 Geisei. Observer T. Seki. 0.60-m f/3.5 reflector.
629 JATE Observatory, Szeged. Observer K. Sarneczky. 0.40-m Cassegrain + CCD.
642 Oak Bay, Victoria. Observer C. E. Spratt. 0.235-m f/5.6
Schmidt-Cassegrain + CCD.
704 Lincoln Laboratory ETS, New Mexico. Observers M. Blythe, F. Shelly,
M. Bezpalko, R. Huber, L. Manguso, S. Adams, J. Piscitelli. Measurers
J. Stuart, R. Sayer, J. B. Evans, H. Viggh. 1.0-m f/2.15 reflector + CCD.
750 Hobbs Observatory, Fall Creek. Observer R. Elliott. 0.3-m f/3.3 reflector
+ CCD.
941 Observatorio Pla D'Arguines. Observer R. Ferrando. 0.26-m f/10
Schmidt-Cassegrain + CCD.
952 Marxuquera. Observer J. J. Gomez. 0.25-m f/3.3 Schmidt-Cassegrain + CCD.
Orbital elements:
C/2000 WM1 (LINEAR)
Epoch 2002 Jan. 6.0 TT = JDT 2452280.5
T 2002 Jan. 22.67471 TT Marsden
q 0.5553826 (2000.0) P Q
z -0.0005260 Peri. 276.76872 -0.31489448 -0.49780720
+/-0.0000021 Node 237.89642 +0.43042693 -0.83373069
e 1.0002921 Incl. 72.54944 -0.84591615 -0.23891659
Residuals in seconds of arc
001116 704 0.1- 0.4+ 010703 360 0.4+ 0.3- 010901 232 1.0- 0.4+
001116 704 0.4+ 0.2+ 010707 673 0.7+ 0.5- 010901 232 1.4- 0.3+
001116 704 0.5+ 0.1+ 010707 673 0.9+ 0.3+ 010904 349 0.1- 0.3+
001116 704 0.4- 1.2- 010707 673 0.9+ 0.3+ 010904 349 0.1- 0.2+
001116 704 0.1+ 0.6+ 010707 673 0.6+ 0.1- 010904 349 0.5- 0.3+
001116 704 1.3- 0.6- 010707 673 0.7+ 0.0 010904 349 0.3- 0.1+
001116 704 0.7- 0.2+ 010707 673 0.9- 0.5- 010905 235 1.9+ 0.6+
001116 704 1.4- 0.9- 010708 201 0.8+ 0.2+ 010906 235 0.6+ 0.4+
001116 704 1.2- 0.2- 010708 201 0.7+ 0.4+ 010907 704 (6.6- 3.1-)
001118 704 0.2+ 0.5+ 010708 201 0.4+ 0.3+ 010907 704 0.2- 1.7-
001118 704 0.4- 0.5+ 010710 673 1.0+ 0.3- 010907 704 0.3+ 1.7+
001118 704 0.5- 0.6+ 010710 673 0.7+ 0.4- 010907 704 (0.5- 4.0+)
001216 704 1.5+ 0.3+ 010710 673 0.5+ 0.3- 010907 170 0.4- 0.0
001216 704 1.6+ 0.5+ 010710 349 0.1+ 0.9+ 010907 170 0.8- 0.3+
001216 704 1.4+ 0.1+ 010710 349 0.1- 0.9+ 010907 170 1.0- 0.0
001217 704 0.1- 0.1+ 010711 170 0.4- 0.5+ 010908 232 0.5+ 1.5-
001217 854 0.5+ 0.0 010711 170 0.1+ 1.0+ 010908 232 0.3- 0.4-
001217 704 0.7- 0.1- 010711 170 0.6- 0.8+ 010908 232 0.7- 0.6-
001217 704 0.4- 0.0 010711 620 0.8- 1.7+ 010908 232 0.7- 0.5-
001217 704 0.2- 0.1+ 010711 620 (0.0 2.6+) 010908 941 0.8- 0.2-
001217 854 1.4- 0.1- 010711 620 (0.4+ 2.4+) 010908 941 0.4+ 0.3-
001217 704 0.7- 0.6+ 010711 620 0.4- 0.5+ 010908 941 0.1- 0.2-
001217 704 0.5- 0.3+ 010712 673 0.1+ 0.4- 010908 941 0.4+ 0.0
001217 854 1.2- 0.0 010712 673 0.6+ 0.4- 010908 642 1.0+ 0.4-
001217 704 0.3+ 0.1+ 010712 673 0.6+ 0.4- 010908 642 0.7+ 0.2-
001217 704 0.8- 0.3+ 010713 170 0.4+ 0.0 010908 642 0.4+ 0.0
001217 704 0.7- 0.7+ 010713 170 0.7- 0.3+ 010909 235 0.0 1.5-
001217 704 0.2- 0.3- 010713 170 0.6+ 0.4+ 010911 170 0.6- 0.1-
001217 704 0.3- 0.9+ 010713 170 0.4+ 0.2+ 010911 170 0.6- 0.1-
001217 704 0.2- 0.9+ 010713 673 1.1+ 0.5- 010911 170 1.3- 0.2+
001217 704 0.1+ 0.5- 010713 673 0.9+ 0.4- 010912 235 1.0+ 0.5-
001217 704 0.7- 0.3- 010713 355 0.4- 0.0 010916 170 0.1+ 0.1-
001217 704 0.3- 0.4+ 010713 355 0.5+ 0.2- 010916 170 0.8- 0.1-
001217 557 0.1- 0.1- 010713 355 0.3- 0.1- 010916 170 0.6- 0.2-
001217 557 0.1- 0.1+ 010713 355 0.5+ 0.5- 010916 170 0.2- 0.2-
001217 557 0.0 0.3+ 010714 620 0.8- 1.3+ 010916 372 0.2- 0.2+
001217 611 0.3+ 0.1+ 010714 620 0.9- 1.0+ 010917 372 0.2+ 0.0
001217 611 0.4+ 0.1- 010714 620 0.7- 0.7+ 010917 201 0.1+ 0.5-
